Location: Newark
(55.5030°N, 22.7200°E)
Time: 22:19:19
(UTC+00:00)

Vanguard 1 Rocket - Visible Passes

Search period start: 25 May 2020 00:00
Search period end: 04 June 2020 00:00
Orbit: 653 x 4224 km, 34.3° (Epoch: 23 May)

Date Brightness Start Highest point End Pass type
(mag) Time Alt. Az. Time Alt. Az. Time Alt. Az.
25 May 10.1 00:10:25 11° SSW 00:15:16 14° SSE 00:19:28 10° SE visible
25 May 10.4 23:02:14 12° SSE 23:04:00 12° SSE 23:07:54 10° SE visible
27 May 10.0 00:11:00 11° SSW 00:17:54 17° S 00:23:30 10° SE visible
27 May 10.3 23:02:18 14° S 23:06:34 16° SSE 23:12:45 10° SE visible
28 May 10.6 21:53:03 14° SSE 21:54:58 14° SSE 22:00:51 10° SE visible
29 May 9.9 00:10:47 10° SW 00:20:28 21° S 00:27:00 10° SE visible
29 May 10.8 20:42:24 10° SSE 20:43:12 10° SSE 20:45:07 10° SE visible
29 May 10.2 22:59:07 11° SSW 23:09:05 21° SSE 23:16:36 10° SE visible
30 May 10.4 21:46:16 10° SSW 21:57:22 18° SSE 22:05:25 10° ESE visible
31 May 9.9 00:11:50 10° SW 00:23:01 24° S 00:30:14 10° SE visible
31 May 10.7 20:36:04 10° S 20:45:27 15° SSE 20:52:56 10° ESE visible
31 May 10.1 22:58:35 10° SW 23:11:33 24° S 23:20:01 10° ESE visible
01 Jun 10.4 21:45:57 10° SSW 21:59:44 23° SSE 22:09:11 10° ESE visible
02 Jun 9.9 00:13:07 10° SW 00:25:29 26° S 00:33:16 10° SE visible
02 Jun 10.7 20:34:30 10° S 20:47:40 20° SSE 20:57:27 10° ESE visible
02 Jun 10.1 22:59:23 10° SW 23:13:59 28° S 23:23:11 10° SE visible
03 Jun 10.3 21:46:11 10° SSW 22:02:03 27° SSE 22:12:33 10° ESE visible
